FW3718 Weather Reports


Display with metric or nautical units.
time (UTC)temp
F
wind
direction
speed
MPH
gust
MPH
rain 1hr
in
rain 24hr
in
rain mn
in
humidity
%
barometer
mb
20200707180306 90 212 0.0 0.0 0.00 0.00 0.00 60 1016.6
20200707175806 91 212 0.0 0.0 0.00 0.00 0.00 57 1016.6
20200707175308 91 212 0.0 0.0 0.00 0.00 0.00 62 1016.7
20200707174807 90 212 0.0 0.0 0.00 0.00 0.00 60 1016.8
20200707174306 90 212 0.0 0.0 0.00 0.00 0.00 60 1016.8
20200707173805 90 212 0.0 0.0 0.00 0.00 0.00 59 1016.9
20200707173801 90 212 0.0 2.0 0.00 0.00 0.00 59 1016.9
20200707173301 90 213 0.0 3.0 0.00 0.00 0.00 61 1016.9
20200707172800 89 201 0.0 3.0 0.00 0.00 0.00 63 1017.0
20200707172301 89 209 0.0 0.0 0.00 0.00 0.00 62 1017.1
20200707171801 89 209 0.0 0.0 0.00 0.00 0.00 62 1017.2
20200707171300 89 209 0.0 3.0 0.00 0.00 0.00 62 1017.3
20200707170800 89 196 0.0 5.0 0.00 0.00 0.00 63 1017.4
20200707170300 88 197 0.0 0.0 0.00 0.00 0.00 61 1017.4
20200707165800 88 197 0.0 0.0 0.00 0.00 0.00 63 1017.4
20200707165301 88 197 0.0 0.0 0.00 0.00 0.00 67 1017.5
20200707164801 88 197 0.0 0.0 0.00 0.00 0.00 67 1017.5
20200707164300 88 197 0.0 3.0 0.00 0.00 0.00 69 1017.6
20200707163800 87 202 0.0 0.0 0.00 0.00 0.00 69 1017.6
20200707163301 87 202 0.0 0.0 0.00 0.00 0.00 67 1017.6
20200707162802 87 202 0.0 3.0 0.00 0.00 0.00 67 1017.6
20200707162301 87 202 0.0 0.0 0.00 0.00 0.00 67 1017.6
20200707161800 86 202 0.0 3.0 0.00 0.00 0.00 67 1017.7
20200707161300 86 175 0.0 3.0 0.00 0.00 0.00 69 1017.6
20200707160800 86 185 0.0 0.0 0.00 0.00 0.00 69 1017.6
20200707160300 85 186 0.0 3.0 0.00 0.00 0.00 69 1017.7
20200707155800 85 173 0.0 2.0 0.00 0.00 0.00 69 1017.6
20200707155301 84 201 0.0 0.0 0.00 0.00 0.00 70 1017.7
20200707154809 84 201 0.0 0.0 0.00 0.00 0.00 71 1017.7
20200707154300 83 201 0.0 3.0 0.00 0.00 0.00 70 1017.7
20200707153803 83 192 0.0 0.0 0.00 0.00 0.00 71 1017.7
20200707153301 83 192 0.0 0.0 0.00 0.00 0.00 70 1017.8
20200707152800 83 192 0.0 3.0 0.00 0.00 0.00 71 1017.9
20200707152302 82 249 0.0 0.0 0.00 0.00 0.00 72 1017.8
20200707151801 82 249 0.0 0.0 0.00 0.00 0.00 72 1017.8
20200707151303 82 249 0.0 0.0 0.00 0.00 0.00 71 1017.9
20200707150801 81 249 0.0 0.0 0.00 0.00 0.00 72 1017.9
20200707150305 81 249 0.0 0.0 0.00 0.00 0.00 71 1017.9
20200707145800 81 249 0.0 0.0 0.00 0.00 0.00 74 1017.8
20200707145321 80 249 0.0 0.0 0.00 0.00 0.00 74 1017.8
20200707144801 80 249 0.0 0.0 0.00 0.00 0.00 75 1017.8
20200707144302 79 249 0.0 0.0 0.00 0.00 0.00 79 1017.7
20200707143802 79 249 0.0 0.0 0.00 0.00 0.00 77 1017.7
20200707143301 79 249 0.0 0.0 0.00 0.00 0.00 79 1017.8
20200707142802 78 249 0.0 0.0 0.00 0.00 0.00 79 1017.8
20200707142313 78 249 0.0 0.0 0.00 0.00 0.00 77 1017.8
20200707141801 77 249 0.0 0.0 0.00 0.00 0.00 81 1017.8
20200707141301 77 249 0.0 0.0 0.00 0.00 0.00 82 1017.8
20200707140801 76 249 0.0 0.0 0.00 0.00 0.00 83 1017.8
20200707140301 76 249 0.0 0.0 0.00 0.00 0.00 83 1017.9
20200707135801 75 249 0.0 0.0 0.00 0.00 0.00 83 1017.9
20200707135300 75 249 0.0 0.0 0.00 0.00 0.00 84 1017.9
20200707134801 74 249 0.0 0.0 0.00 0.00 0.00 86 1017.9
20200707134300 74 249 0.0 0.0 0.00 0.00 0.00 88 1017.9
20200707133801 74 249 0.0 0.0 0.00 0.00 0.00 88 1017.8
20200707133302 74 249 0.0 0.0 0.00 0.00 0.00 88 1017.8
20200707132801 74 249 0.0 0.0 0.00 0.00 0.00 89 1017.8
20200707132301 74 249 0.0 0.0 0.00 0.00 0.00 90 1017.8
20200707131801 73 249 0.0 0.0 0.00 0.00 0.00 90 1017.7
20200707131301 73 249 0.0 0.0 0.00 0.00 0.00 89 1017.7
20200707130801 73 249 0.0 0.0 0.00 0.00 0.00 90 1017.6
20200707130303 73 249 0.0 0.0 0.00 0.00 0.00 89 1017.6
20200707125801 73 249 0.0 0.0 0.00 0.00 0.00 89 1017.5
20200707125302 73 249 0.0 0.0 0.00 0.00 0.00 89 1017.4
20200707124806 73 249 0.0 0.0 0.00 0.00 0.00 89 1017.4
20200707124301 73 249 0.0 0.0 0.00 0.00 0.00 89 1017.3
20200707123801 73 249 0.0 0.0 0.00 0.00 0.00 88 1017.4
20200707123303 72 249 0.0 0.0 0.00 0.00 0.00 89 1017.3
20200707122801 72 249 0.0 0.0 0.00 0.00 0.00 90 1017.3
20200707122304 72 249 0.0 0.0 0.00 0.00 0.00 90 1017.2
20200707121801 72 249 0.0 0.0 0.00 0.00 0.00 91 1017.2
20200707121301 72 249 0.0 0.0 0.00 0.00 0.00 91 1017.2
20200707120802 72 249 0.0 0.0 0.00 0.00 0.00 91 1017.1
20200707120301 72 249 0.0 0.0 0.00 0.00 0.00 91 1017.1
20200707115802 72 249 0.0 0.0 0.00 0.00 0.00 91 1017.1
20200707115301 71 249 0.0 0.0 0.00 0.00 0.00 91 1017.0
20200707114801 71 249 0.0 0.0 0.00 0.00 0.00 90 1016.9
20200707114303 71 249 0.0 0.0 0.00 0.00 0.00 90 1016.8
20200707113801 71 249 0.0 0.0 0.00 0.00 0.00 90 1016.7
20200707113301 71 249 0.0 0.0 0.00 0.00 0.00 90 1016.9
20200707112801 71 249 0.0 0.0 0.00 0.00 0.00 90 1016.9
20200707112303 71 249 0.0 0.0 0.00 0.00 0.00 90 1016.9
20200707111803 71 249 0.0 0.0 0.00 0.00 0.00 90 1016.8
20200707111302 71 249 0.0 0.0 0.00 0.00 0.00 90 1016.9
20200707110802 71 249 0.0 0.0 0.00 0.00 0.00 90 1016.8
20200707110303 71 249 0.0 0.0 0.00 0.00 0.00 90 1016.8
20200707105802 71 249 0.0 0.0 0.00 0.00 0.00 90 1016.8
20200707105301 70 249 0.0 0.0 0.00 0.00 0.00 90 1016.8
20200707104802 70 249 0.0 0.0 0.00 0.00 0.00 90 1016.8
20200707104302 71 249 0.0 0.0 0.00 0.00 0.00 90 1016.8
20200707103804 71 249 0.0 0.0 0.00 0.00 0.00 90 1016.7
20200707103302 71 249 0.0 0.0 0.00 0.00 0.00 90 1016.7
20200707102802 71 249 0.0 0.0 0.00 0.00 0.00 90 1016.7
20200707102302 71 249 0.0 0.0 0.00 0.00 0.00 89 1016.6
20200707101805 71 249 0.0 0.0 0.00 0.00 0.00 89 1016.6
20200707101304 71 249 0.0 0.0 0.00 0.00 0.00 89 1016.7
20200707100802 71 249 0.0 0.0 0.00 0.00 0.00 89 1016.7
20200707100302 71 249 0.0 0.0 0.00 0.00 0.00 89 1016.7
20200707095802 71 249 0.0 0.0 0.00 0.00 0.00 89 1016.7
20200707095303 71 249 0.0 0.0 0.00 0.00 0.00 89 1016.8
20200707094801 71 249 0.0 0.0 0.00 0.00 0.00 89 1016.7
20200707094305 71 249 0.0 0.0 0.00 0.00 0.00 89 1016.6
20200707093802 71 249 0.0 0.0 0.00 0.00 0.00 89 1016.6
20200707093305 71 249 0.0 0.0 0.00 0.00 0.00 88 1016.5
20200707092802 71 249 0.0 0.0 0.00 0.00 0.00 88 1016.5
20200707092303 71 249 0.0 0.0 0.00 0.00 0.00 88 1016.5
20200707091802 71 249 0.0 0.0 0.00 0.00 0.00 88 1016.5
20200707091303 71 249 0.0 0.0 0.00 0.00 0.00 88 1016.5
20200707090803 71 249 0.0 0.0 0.00 0.00 0.00 88 1016.3
20200707090303 71 249 0.0 0.0 0.00 0.00 0.00 88 1016.2
20200707085802 71 249 0.0 0.0 0.00 0.00 0.00 88 1016.2
20200707085304 71 249 0.0 0.0 0.00 0.00 0.00 88 1016.1
20200707084804 71 249 0.0 0.0 0.00 0.00 0.00 88 1016.1
20200707084302 71 249 0.0 0.0 0.00 0.00 0.00 86 1016.1
20200707083801 71 249 0.0 0.0 0.00 0.00 0.00 88 1016.2
20200707083303 72 249 0.0 0.0 0.00 0.00 0.00 88 1016.1
20200707082802 72 249 0.0 0.0 0.00 0.00 0.00 86 1016.1
20200707082302 72 249 0.0 0.0 0.00 0.00 0.00 86 1016.1
20200707081802 72 249 0.0 0.0 0.00 0.00 0.00 86 1016.1
20200707081302 72 249 0.0 0.0 0.00 0.00 0.00 86 1016.0
20200707080804 72 249 0.0 0.0 0.00 0.00 0.00 85 1016.2
20200707080302 72 249 0.0 0.0 0.00 0.00 0.00 86 1016.2
20200707075803 72 249 0.0 0.0 0.00 0.00 0.00 86 1016.2
20200707075303 72 249 0.0 0.0 0.00 0.00 0.00 85 1016.2
20200707074802 72 249 0.0 0.0 0.00 0.00 0.00 85 1016.2
20200707074302 72 249 0.0 0.0 0.00 0.00 0.00 85 1016.2
20200707073803 72 249 0.0 0.0 0.00 0.00 0.00 85 1016.3
20200707073304 72 249 0.0 0.0 0.00 0.00 0.00 85 1016.2
20200707072802 72 249 0.0 0.0 0.00 0.00 0.00 85 1016.4
20200707072303 72 249 0.0 0.0 0.00 0.00 0.00 85 1016.5
20200707071802 72 249 0.0 0.0 0.00 0.00 0.00 85 1016.5
20200707071303 72 249 0.0 0.0 0.00 0.00 0.00 85 1016.6
20200707070804 72 249 0.0 0.0 0.00 0.00 0.00 85 1016.6
20200707070303 72 249 0.0 0.0 0.00 0.00 0.00 85 1016.5
20200707065803 73 249 0.0 0.0 0.00 0.00 0.00 85 1016.6
20200707065302 73 249 0.0 0.0 0.00 0.00 0.00 84 1016.6
20200707064802 73 249 0.0 0.0 0.00 0.00 0.00 84 1016.8
20200707064303 73 249 0.0 0.0 0.00 0.00 0.00 84 1016.8
20200707063802 73 249 0.0 0.0 0.00 0.00 0.00 84 1016.7
20200707063302 73 249 0.0 0.0 0.00 0.00 0.00 84 1016.7
20200707062804 73 249 0.0 0.0 0.00 0.00 0.00 84 1016.6
20200707062304 73 249 0.0 0.0 0.00 0.00 0.00 83 1016.7
20200707061803 73 249 0.0 0.0 0.00 0.00 0.00 83 1016.7
20200707061303 73 249 0.0 0.0 0.00 0.00 0.00 83 1016.7
20200707060803 74 249 0.0 0.0 0.00 0.00 0.00 83 1016.6
20200707060303 74 249 0.0 0.0 0.00 0.00 0.00 83 1016.5
20200707055806 74 249 0.0 0.0 0.00 0.00 0.00 83 1016.5
20200707055303 74 249 0.0 0.0 0.00 0.00 0.00 82 1016.3
20200707054804 74 249 0.0 0.0 0.00 0.00 0.00 82 1016.3
20200707054304 74 249 0.0 0.0 0.00 0.00 0.00 82 1016.2
20200707053803 74 249 0.0 0.0 0.00 0.00 0.00 81 1016.1
20200707053303 74 249 0.0 0.0 0.00 0.00 0.00 81 1016.1
20200707052804 74 249 0.0 0.0 0.00 0.00 0.00 81 1016.0
20200707052303 74 249 0.0 0.0 0.00 0.00 0.00 80 1016.1
20200707051814 75 249 0.0 0.0 0.00 0.00 0.00 81 1016.0
20200707051303 75 249 0.0 0.0 0.00 0.00 0.00 80 1016.1
20200707050803 75 249 0.0 0.0 0.00 0.00 0.00 80 1016.1
20200707050306 75 249 0.0 0.0 0.00 0.00 0.00 79 1016.3
20200707045808 75 249 0.0 0.0 0.00 0.00 0.00 79 1016.5
20200707045303 75 249 0.0 0.0 0.00 0.00 0.00 79 1016.6
20200707044802 76 249 0.0 0.0 0.00 0.00 0.00 79 1016.5
20200707044302 76 249 0.0 0.0 0.00 0.00 0.00 77 1016.5
20200707043803 76 249 0.0 0.0 0.00 0.00 0.00 77 1016.6
20200707043303 76 249 0.0 0.0 0.00 0.00 0.00 77 1016.6
20200707042803 76 249 0.0 0.0 0.00 0.00 0.00 77 1016.7
20200707042308 76 249 0.0 0.0 0.00 0.00 0.00 77 1016.7
20200707041803 76 249 0.0 0.0 0.00 0.00 0.00 77 1016.9
20200707041305 76 249 0.0 0.0 0.00 0.00 0.00 76 1017.0
20200707040855 76 249 0.0 0.0 0.00 0.00 0.00 77 1017.2
20200707040304 76 249 0.0 0.0 0.00 0.00 0.00 76 1017.4
20200707035803 76 249 0.0 0.0 0.00 0.00 0.00 75 1017.3
20200707035311 76 249 0.0 0.0 0.00 0.00 0.00 75 1017.4
20200707034804 77 249 0.0 0.0 0.00 0.00 0.00 75 1017.4
20200707034303 77 249 0.0 0.0 0.00 0.00 0.00 75 1017.5
20200707033804 77 249 0.0 0.0 0.00 0.00 0.00 75 1017.7
20200707033304 77 249 0.0 0.0 0.00 0.00 0.00 75 1017.7
20200707032803 77 249 0.0 0.0 0.00 0.00 0.00 75 1017.8
20200707032303 77 249 0.0 0.0 0.00 0.00 0.00 77 1017.7
20200707031803 77 249 0.0 0.0 0.00 0.00 0.00 79 1017.6
20200707031303 77 249 0.0 0.0 0.00 0.00 0.00 79 1017.5
20200707030803 77 249 0.0 0.0 0.00 0.00 0.00 80 1017.5
20200707030303 76 249 0.0 0.0 0.00 0.00 0.00 79 1017.5
20200707025803 76 249 0.0 0.0 0.00 0.00 0.00 80 1017.5
20200707025304 76 249 0.0 0.0 0.00 0.00 0.00 80 1017.4
20200707024806 77 249 0.0 0.0 0.00 0.00 0.00 79 1017.3
20200707024303 77 249 0.0 0.0 0.00 0.00 0.00 79 1017.2
20200707023805 77 249 0.0 0.0 0.00 0.00 0.00 79 1017.1
20200707023303 77 249 0.0 0.0 0.00 0.00 0.00 77 1017.1
20200707022804 77 249 0.0 0.0 0.00 0.00 0.00 77 1016.9
20200707022313 77 249 0.0 0.0 0.00 0.00 0.00 77 1016.7
20200707021804 77 249 0.0 0.0 0.00 0.00 0.00 77 1016.4
20200707021303 78 249 0.0 0.0 0.00 0.00 0.00 77 1016.1
20200707020803 78 249 0.0 0.0 0.00 0.00 0.00 76 1015.9
20200707020304 78 249 0.0 0.0 0.00 0.00 0.00 75 1015.9
20200707015804 78 249 0.0 0.0 0.00 0.00 0.00 75 1015.9
20200707015310 78 249 0.0 0.0 0.00 0.00 0.00 75 1015.8
20200707014803 78 249 0.0 0.0 0.00 0.00 0.00 75 1015.9
20200707014304 79 249 0.0 0.0 0.00 0.00 0.00 74 1015.7
20200707013804 79 249 0.0 0.0 0.00 0.00 0.00 75 1015.6
20200707013303 79 249 0.0 0.0 0.00 0.00 0.00 74 1015.6
20200707012804 79 249 0.0 0.0 0.00 0.00 0.00 72 1015.6
20200707012304 79 249 0.0 0.0 0.00 0.00 0.00 71 1015.6
20200707011804 80 249 0.0 0.0 0.00 0.00 0.00 71 1015.5
20200707011304 80 249 0.0 0.0 0.00 0.00 0.00 70 1015.5
20200707010804 80 249 0.0 0.0 0.00 0.00 0.00 71 1015.5
20200707010303 80 249 0.0 0.0 0.00 0.00 0.00 70 1015.5
20200707005804 80 249 0.0 0.0 0.00 0.00 0.00 69 1015.4
20200707005311 81 249 0.0 0.0 0.00 0.00 0.00 70 1015.4
20200707004804 81 249 0.0 0.0 0.00 0.00 0.00 69 1015.5
20200707004304 81 249 0.0 0.0 0.00 0.00 0.00 69 1015.5
20200707003806 82 249 0.0 0.0 0.00 0.00 0.00 68 1015.4
20200707003304 82 249 0.0 0.0 0.00 0.00 0.00 66 1015.4
20200707002804 82 249 0.0 0.0 0.00 0.00 0.00 67 1015.4
20200707002305 82 249 0.0 0.0 0.00 0.00 0.00 67 1015.3
20200707001804 82 249 0.0 0.0 0.00 0.00 0.00 70 1015.3
20200707001304 82 249 0.0 0.0 0.00 0.00 0.00 72 1015.4
20200707000804 82 249 0.0 0.0 0.00 0.00 0.00 75 1015.4
20200707000303 83 249 0.0 0.0 0.00 0.00 0.00 74 1015.5
20200706235805 83 247 0.0 2.0 0.00 0.00 0.00 74 1015.5
20200706235304 83 105 0.0 3.0 0.00 0.00 0.00 73 1015.6
20200706234803 83 225 1.0 2.0 0.00 0.00 0.00 76 1015.6
20200706234304 83 337 1.0 2.0 0.00 0.00 0.00 76 1015.6
20200706233806 84 179 0.0 0.0 0.00 0.00 0.00 72 1015.3
20200706233304 84 179 0.0 0.0 0.00 0.00 0.00 72 1015.2
20200706232804 84 198 1.0 3.0 0.00 0.00 0.00 72 1015.2
20200706232306 85 208 1.0 5.0 0.00 0.00 0.00 72 1015.2
20200706231804 85 306 0.0 0.0 0.00 0.00 0.00 72 1015.2
20200706231304 85 306 0.0 0.0 0.00 0.00 0.00 72 1015.1
20200706230805 85 306 0.0 0.0 0.00 0.00 0.00 74 1015.1
20200706230304 85 306 0.0 0.0 0.00 0.00 0.00 72 1015.0
20200706225805 85 306 0.0 0.0 0.00 0.00 0.00 71 1015.1
20200706225304 85 306 0.0 0.0 0.00 0.00 0.00 71 1015.0
20200706224804 86 306 0.0 0.0 0.00 0.00 0.00 71 1015.1
20200706224304 86 306 0.0 0.0 0.00 0.00 0.00 72 1015.0
20200706223804 86 306 0.0 5.0 0.00 0.00 0.00 72 1014.9
20200706223305 86 203 0.0 3.0 0.00 0.00 0.00 72 1015.0
20200706222805 86 202 1.0 5.0 0.00 0.00 0.00 72 1015.0
20200706222304 86 227 0.0 5.0 0.00 0.00 0.00 71 1014.9
20200706221804 86 233 1.0 3.0 0.00 0.00 0.00 71 1014.9
20200706221304 87 239 0.0 5.0 0.00 0.00 0.00 70 1014.9
20200706220804 87 220 1.0 6.0 0.00 0.00 0.00 70 1014.8
20200706220305 87 226 0.0 5.0 0.00 0.00 0.00 71 1014.9
20200706215809 87 237 0.0 3.0 0.00 0.00 0.00 72 1014.9
20200706215309 87 212 0.0 2.0 0.00 0.00 0.00 72 1015.0
20200706214804 87 219 0.0 5.0 0.00 0.00 0.00 72 1015.0
20200706214304 87 156 0.0 7.0 0.00 0.00 0.00 71 1014.9
20200706213806 87 238 0.0 2.0 0.00 0.00 0.00 70 1015.0
20200706213305 87 230 0.0 1.0 0.00 0.00 0.00 71 1015.0
20200706212805 87 222 0.0 1.0 0.00 0.00 0.00 70 1015.0
20200706212305 87 228 1.0 2.0 0.00 0.00 0.00 70 1015.1
20200706211804 88 229 0.0 2.0 0.00 0.00 0.00 69 1015.1
20200706211305 89 235 0.0 3.0 0.00 0.00 0.00 67 1015.0
20200706210805 89 281 0.0 3.0 0.00 0.00 0.00 67 1015.0
20200706210307 89 271 0.0 3.0 0.00 0.00 0.00 67 1015.1
20200706205805 89 276 0.0 3.0 0.00 0.00 0.00 66 1015.2
20200706205306 89 234 0.0 3.0 0.00 0.00 0.00 66 1015.2
20200706204805 89 303 0.0 3.0 0.00 0.00 0.00 64 1015.2
20200706204304 90 231 0.0 6.0 0.00 0.00 0.00 60 1015.2
20200706203805 90 285 0.0 3.0 0.00 0.00 0.00 61 1015.3
20200706203304 90 147 0.0 5.0 0.00 0.00 0.00 64 1015.3
20200706202805 90 297 1.0 6.0 0.00 0.00 0.00 64 1015.3
20200706202306 90 281 0.0 5.0 0.00 0.00 0.00 63 1015.4
20200706201806 90 304 0.0 0.0 0.00 0.00 0.00 62 1015.4
20200706201305 90 304 0.0 5.0 0.00 0.00 0.00 62 1015.6
20200706200805 89 216 1.0 8.0 0.00 0.00 0.00 64 1015.6
20200706200305 90 32 1.0 8.0 0.00 0.00 0.00 64 1015.7
20200706195804 90 257 1.0 5.0 0.00 0.00 0.00 63 1015.7
20200706195306 90 327 2.0 5.0 0.00 0.00 0.00 61 1015.8
20200706194807 90 293 1.0 5.0 0.00 0.00 0.00 60 1015.9
20200706194307 91 292 1.0 6.0 0.00 0.00 0.00 61 1016.0
20200706193806 91 312 1.0 5.0 0.00 0.00 0.00 60 1016.0
20200706193305 91 222 0.0 5.0 0.00 0.00 0.00 63 1016.0
20200706192805 91 249 0.0 6.0 0.00 0.00 0.00 63 1016.1
20200706192305 91 148 0.0 3.0 0.00 0.00 0.00 62 1016.2
20200706191805 91 224 2.0 8.0 0.00 0.00 0.00 61 1016.2
20200706191305 91 275 0.0 8.0 0.00 0.00 0.00 62 1016.3
20200706190806 90 247 0.0 2.0 0.00 0.00 0.00 63 1016.5
20200706190305 90 177 0.0 5.0 0.00 0.00 0.00 62 1016.5
20200706185806 90 236 0.0 6.0 0.00 0.00 0.00 64 1016.5
20200706185306 90 231 1.0 5.0 0.00 0.00 0.00 63 1016.6
20200706184805 89 235 1.0 7.0 0.00 0.00 0.00 63 1016.6
20200706184305 90 211 4.0 8.0 0.00 0.00 0.00 64 1016.6
20200706183805 90 196 2.0 8.0 0.00 0.00 0.00 63 1016.7
20200706183306 90 228 1.0 6.0 0.00 0.00 0.00 63 1016.7
20200706182805 90 220 2.0 10.0 0.00 0.00 0.00 62 1016.7
20200706182305 90 215 1.0 9.0 0.00 0.00 0.00 62 1016.8
20200706181805 90 219 1.0 9.0 0.00 0.00 0.00 63 1016.8
20200706181306 89 322 2.0 7.0 0.00 0.00 0.00 65 1016.8
20200706180805 90 276 2.0 6.0 0.00 0.00 0.00 66 1016.9